DW9447 Weather Reports


Display with metric or nautical units.
time (UTC)temp
F
wind
direction
speed
MPH
gust
MPH
rain 1hr
in
rain 24hr
in
rain mn
in
humidity
%
barometer
mb
20210923083944 51 48 0.0 0.0 0.00 0.22 0.00 81 1018.3
20210923083446 51 48 0.0 0.0 0.00 0.22 0.00 82 1018.4
20210923082944 51 48 0.0 0.0 0.00 0.22 0.00 81 1018.3
20210923082442 51 48 0.0 0.0 0.00 0.22 0.00 81 1018.4
20210923081947 51 48 0.0 0.0 0.00 0.22 0.00 81 1018.4
20210923081439 51 48 0.0 0.0 0.00 0.22 0.00 81 1018.4
20210923080936 51 48 0.0 0.0 0.00 0.22 0.00 81 1018.4
20210923080437 51 48 0.0 0.0 0.00 0.22 0.00 80 1018.5
20210923075935 51 48 0.0 0.0 0.00 0.22 0.00 80 1018.5
20210923075431 51 48 0.0 0.0 0.00 0.22 0.00 81 1018.5
20210923074930 51 48 0.0 0.0 0.00 0.22 0.00 80 1018.5
20210923074429 52 48 0.0 0.0 0.00 0.22 0.00 80 1018.4
20210923073929 52 48 0.0 0.0 0.00 0.22 0.00 80 1018.5
20210923073426 52 48 0.0 0.0 0.00 0.22 0.00 80 1018.5
20210923072915 52 48 0.0 0.0 0.00 0.22 0.00 80 1018.4
20210923072410 52 48 0.0 0.0 0.00 0.22 0.00 80 1018.5
20210923071905 52 48 0.0 0.0 0.00 0.22 0.00 80 1018.5
20210923071352 52 48 0.0 0.0 0.00 0.22 0.00 79 1018.4
20210923070847 52 48 0.0 0.0 0.00 0.22 0.00 80 1018.4
20210923070344 52 48 0.0 0.0 0.00 0.22 0.00 79 1018.3
20210923065831 53 48 0.0 0.0 0.00 0.22 0.00 79 1018.4
20210923065324 53 48 0.0 0.0 0.00 0.22 0.00 79 1018.5
20210923064819 53 48 0.0 0.0 0.00 0.22 0.00 79 1018.5
20210923064308 53 48 0.0 0.0 0.00 0.22 0.00 79 1018.5
20210923063803 53 48 0.0 0.0 0.00 0.22 0.00 79 1018.5
20210923063259 53 48 0.0 0.0 0.00 0.22 0.00 79 1018.5
20210923062747 53 48 0.0 0.0 0.00 0.22 0.00 79 1018.6
20210923062241 53 48 0.0 0.0 0.00 0.22 0.00 79 1018.5
20210923061736 54 48 0.0 0.0 0.00 0.22 0.00 79 1018.5
20210923061226 54 48 0.0 0.0 0.00 0.22 0.00 78 1018.5
20210923060719 54 48 0.0 0.0 0.00 0.22 0.00 78 1018.5
20210923060213 54 48 0.0 0.0 0.00 0.22 0.00 78 1018.6
20210923055703 54 48 0.0 0.0 0.00 0.22 0.00 78 1018.7
20210923055156 54 48 0.0 0.0 0.00 0.22 0.00 78 1018.8
20210923054650 55 48 0.0 0.0 0.00 0.22 0.00 78 1018.7
20210923054138 55 48 0.0 0.0 0.00 0.22 0.00 78 1018.8
20210923053636 55 48 0.0 0.0 0.00 0.22 0.00 77 1018.8
20210923053129 55 48 0.0 0.0 0.00 0.22 0.00 77 1018.8
20210923052618 55 48 0.0 0.0 0.00 0.22 0.00 77 1018.8
20210923052114 55 48 0.0 0.0 0.00 0.22 0.00 77 1018.8
20210923051608 56 48 0.0 0.0 0.00 0.22 0.00 77 1018.9
20210923051057 56 48 0.0 0.0 0.00 0.22 0.00 77 1018.9
20210923050550 56 48 0.0 0.0 0.00 0.22 0.00 77 1019.0
20210923050046 56 48 0.0 0.0 0.00 0.22 0.00 77 1019.0
20210923045545 56 48 0.0 1.0 0.00 0.22 0.22 77 1019.1
20210923045040 56 48 0.0 2.0 0.00 0.22 0.22 77 1019.1
20210923044537 56 48 0.0 2.0 0.00 0.22 0.22 77 1018.9
20210923044036 56 48 0.0 3.0 0.00 0.22 0.22 77 1018.9
20210923043533 57 48 1.0 3.0 0.00 0.22 0.22 77 1018.9
20210923043032 57 47 1.0 4.0 0.00 0.22 0.22 77 1018.9
20210923042532 57 46 1.0 4.0 0.00 0.22 0.22 77 1019.0
20210923042027 57 42 1.0 4.0 0.00 0.22 0.22 77 1019.0
20210923041525 57 36 1.0 4.0 0.00 0.22 0.22 77 1019.0
20210923041025 57 86 1.0 5.0 0.00 0.22 0.22 77 1019.0
20210923040528 57 84 2.0 5.0 0.00 0.22 0.22 77 1018.9
20210923040027 57 54 2.0 5.0 0.00 0.22 0.22 77 1018.9
20210923035523 57 54 2.0 5.0 0.00 0.22 0.22 77 1018.8
20210923035026 57 36 1.0 5.0 0.00 0.22 0.22 76 1018.9
20210923034525 57 54 2.0 6.0 0.00 0.22 0.22 76 1018.9
20210923034026 57 22 2.0 6.0 0.00 0.22 0.22 76 1018.9
20210923033524 57 71 2.0 6.0 0.00 0.22 0.22 76 1018.9
20210923033025 57 52 1.0 4.0 0.00 0.22 0.22 76 1018.9
20210923032527 57 42 1.0 5.0 0.00 0.22 0.22 76 1018.9
20210923032021 57 1 1.0 5.0 0.00 0.22 0.22 76 1018.9
20210923031524 58 7 1.0 5.0 0.00 0.22 0.22 76 1018.9
20210923031021 58 56 1.0 5.0 0.00 0.22 0.22 75 1018.8
20210923030522 58 77 1.0 7.0 0.00 0.22 0.22 75 1018.8
20210923030024 58 0 1.0 7.0 0.00 0.22 0.22 75 1018.8
20210923025520 58 1 1.0 4.0 0.00 0.22 0.22 75 1018.8
20210923025020 58 31 1.0 4.0 0.00 0.22 0.22 75 1018.9
20210923024517 58 32 0.0 4.0 0.00 0.22 0.22 74 1018.9
20210923024018 58 32 0.0 4.0 0.00 0.22 0.22 74 1019.0
20210923023519 58 44 0.0 2.0 0.00 0.22 0.22 74 1019.0
20210923023020 59 44 0.0 3.0 0.00 0.22 0.22 73 1018.9
20210923022518 59 44 0.0 3.0 0.00 0.22 0.22 73 1018.9
20210923022011 59 43 0.0 2.0 0.00 0.22 0.22 72 1018.9
20210923021505 59 41 0.0 2.0 0.00 0.22 0.22 72 1018.9
20210923020959 59 41 0.0 0.0 0.00 0.22 0.22 71 1018.8
20210923020446 60 41 0.0 2.0 0.00 0.22 0.22 70 1018.9
20210923015940 60 41 0.0 2.0 0.00 0.22 0.22 70 1018.9
20210923015441 60 41 0.0 3.0 0.00 0.22 0.22 69 1018.9
20210923014939 60 41 0.0 3.0 0.00 0.22 0.22 69 1018.9
20210923014439 60 41 0.0 2.0 0.00 0.22 0.22 69 1018.9
20210923013938 61 41 1.0 3.0 0.00 0.22 0.22 69 1018.9
20210923013437 61 41 1.0 6.0 0.00 0.22 0.22 68 1019.0
20210923012931 61 41 1.0 6.0 0.00 0.22 0.22 68 1018.9
20210923012432 61 52 1.0 5.0 0.00 0.22 0.22 68 1018.8
20210923011932 61 12 1.0 6.0 0.00 0.22 0.22 68 1018.7
20210923011434 61 11 2.0 8.0 0.00 0.22 0.22 68 1018.7
20210923010930 61 25 2.0 8.0 0.00 0.22 0.22 68 1018.6
20210923010433 62 36 2.0 7.0 0.00 0.22 0.22 68 1018.6
20210923005938 62 60 2.0 7.0 0.00 0.22 0.22 68 1018.5
20210923005430 62 29 3.0 7.0 0.00 0.22 0.22 67 1018.5
20210923004933 62 66 3.0 7.0 0.00 0.22 0.22 67 1018.4
20210923004429 62 53 3.0 6.0 0.00 0.22 0.22 67 1018.4
20210923003924 62 352 3.0 6.0 0.00 0.22 0.22 67 1018.3
20210923003430 62 20 3.0 8.0 0.00 0.22 0.22 67 1018.3
20210923002918 63 2 3.0 8.0 0.00 0.22 0.22 67 1018.3
20210923002418 63 51 2.0 6.0 0.00 0.22 0.22 67 1018.2
20210923001921 63 53 2.0 7.0 0.00 0.22 0.22 67 1018.2
20210923001416 63 0 2.0 7.0 0.00 0.22 0.22 67 1018.3
20210923000916 63 10 2.0 6.0 0.00 0.22 0.22 67 1018.2
20210923000420 64 20 2.0 8.0 0.00 0.22 0.22 67 1018.1
20210922235915 64 357 1.0 8.0 0.00 0.22 0.22 66 1018.0
20210922235416 64 38 1.0 5.0 0.00 0.22 0.22 66 1018.2
20210922234915 65 359 2.0 7.0 0.00 0.22 0.22 65 1018.2
20210922234416 65 51 2.0 7.0 0.00 0.22 0.22 64 1018.2
20210922233913 65 32 2.0 7.0 0.00 0.22 0.22 63 1018.1
20210922233417 65 1 2.0 7.0 0.00 0.22 0.22 63 1018.0
20210922232916 66 1 3.0 7.0 0.00 0.22 0.22 62 1018.0
20210922232413 66 1 3.0 7.0 0.00 0.22 0.22 62 1018.0
20210922231917 66 32 3.0 6.0 0.00 0.22 0.22 61 1018.0
20210922231419 67 7 3.0 7.0 0.00 0.22 0.22 61 1018.0
20210922230917 67 345 2.0 8.0 0.00 0.22 0.22 60 1018.0
20210922230419 67 333 3.0 8.0 0.00 0.22 0.22 59 1018.0
20210922225911 67 327 3.0 8.0 0.00 0.22 0.22 59 1018.0
20210922225411 68 19 4.0 10.0 0.00 0.22 0.22 57 1018.0
20210922224912 68 1 5.0 10.0 0.00 0.22 0.22 57 1018.0
20210922224413 68 323 5.0 13.0 0.00 0.22 0.22 56 1018.0
20210922223912 68 350 3.0 13.0 0.00 0.22 0.22 56 1017.9
20210922223411 68 13 3.0 10.0 0.00 0.22 0.22 58 1017.9
20210922222919 68 354 3.0 10.0 0.00 0.22 0.22 57 1017.8
20210922222418 68 339 3.0 8.0 0.00 0.22 0.22 57 1017.8
20210922221914 68 331 3.0 8.0 0.00 0.22 0.22 56 1017.8
20210922221414 69 305 4.0 9.0 0.00 0.22 0.22 57 1017.8
20210922220912 69 1 5.0 14.0 0.00 0.23 0.22 55 1017.8
20210922220416 69 1 5.0 14.0 0.00 0.28 0.22 55 1017.8
20210922215909 69 352 4.0 10.0 0.00 0.30 0.22 54 1017.9
20210922215407 69 28 6.0 18.0 0.00 0.30 0.22 53 1017.8
20210922214906 70 314 7.0 18.0 0.00 0.31 0.22 52 1017.8
20210922214409 70 316 6.0 17.0 0.00 0.31 0.22 52 1017.8
20210922213903 70 319 5.0 17.0 0.00 0.31 0.22 52 1017.8
20210922213404 70 316 4.0 14.0 0.00 0.31 0.22 54 1017.7
20210922212904 70 332 4.0 12.0 0.00 0.31 0.22 53 1017.6
20210922212401 70 328 5.0 12.0 0.00 0.31 0.22 54 1017.6
20210922211913 70 326 4.0 13.0 0.00 0.31 0.22 56 1017.5
20210922211400 70 14 4.0 13.0 0.00 0.31 0.22 56 1017.6
20210922210901 70 330 4.0 16.0 0.00 0.31 0.22 55 1017.6
20210922210401 70 282 5.0 16.0 0.00 0.31 0.22 55 1017.6
20210922205855 71 348 5.0 12.0 0.00 0.31 0.22 54 1017.7
20210922205403 71 232 6.0 15.0 0.00 0.31 0.22 55 1017.7
20210922204902 71 13 6.0 15.0 0.00 0.31 0.22 52 1017.7
20210922204358 72 348 5.0 15.0 0.00 0.31 0.22 54 1017.7
20210922203848 72 319 5.0 16.0 0.00 0.31 0.22 54 1017.7
20210922203346 72 340 6.0 17.0 0.00 0.31 0.22 51 1017.8
20210922202845 71 333 7.0 17.0 0.00 0.31 0.22 52 1017.7
20210922202344 71 349 7.0 17.0 0.00 0.31 0.22 52 1017.7
20210922201844 72 353 6.0 16.0 0.00 0.31 0.22 52 1017.7
20210922201341 71 334 6.0 17.0 0.00 0.31 0.22 55 1017.8
20210922200839 71 36 5.0 17.0 0.00 0.31 0.22 54 1017.8
20210922200339 71 356 5.0 13.0 0.00 0.31 0.22 58 1017.7
20210922195838 71 25 7.0 17.0 0.00 0.31 0.22 56 1017.8
20210922195339 70 352 7.0 18.0 0.00 0.32 0.22 54 1017.9
20210922194839 71 0 6.0 18.0 0.00 0.32 0.22 52 1017.9
20210922194339 71 295 6.0 17.0 0.00 0.32 0.22 57 1017.8
20210922193837 71 298 6.0 15.0 0.00 0.32 0.22 57 1017.9
20210922193337 71 11 8.0 15.0 0.00 0.32 0.22 56 1017.9
20210922192838 70 260 7.0 15.0 0.00 0.32 0.22 57 1017.9
20210922192341 70 47 7.0 15.0 0.00 0.32 0.22 57 1018.1
20210922191836 70 314 6.0 14.0 0.00 0.32 0.22 59 1018.0
20210922191325 70 14 6.0 14.0 0.00 0.32 0.22 61 1018.1
20210922190820 69 316 6.0 15.0 0.00 0.32 0.22 63 1018.1
20210922190315 69 327 6.0 15.0 0.00 0.32 0.22 65 1018.2
20210922185756 69 276 6.0 14.0 0.00 0.32 0.22 65 1018.3
20210922185251 69 289 6.0 14.0 0.00 0.32 0.22 63 1018.3
20210922184748 69 293 6.0 14.0 0.00 0.32 0.22 64 1018.3
20210922184235 68 309 4.0 14.0 0.00 0.32 0.22 66 1018.3
20210922183734 68 339 5.0 12.0 0.00 0.32 0.22 68 1018.4
20210922183230 67 345 5.0 12.0 0.00 0.32 0.22 69 1018.6
20210922182718 67 35 4.0 13.0 0.00 0.32 0.22 68 1018.6
20210922182214 67 342 3.0 13.0 0.00 0.32 0.22 69 1018.6
20210922181707 67 348 3.0 8.0 0.00 0.32 0.22 69 1018.7
20210922181157 67 349 4.0 9.0 0.00 0.32 0.22 69 1018.8
20210922180650 66 343 4.0 10.0 0.00 0.32 0.22 70 1018.7
20210922180140 66 281 5.0 10.0 0.00 0.32 0.22 68 1018.8
20210922175631 67 339 5.0 11.0 0.00 0.32 0.22 70 1018.7
20210922175128 67 321 5.0 11.0 0.00 0.32 0.22 70 1018.7
20210922174624 66 342 4.0 10.0 0.00 0.32 0.22 71 1018.9
20210922174125 66 248 4.0 11.0 0.00 0.32 0.22 70 1019.0
20210922173623 66 331 4.0 11.0 0.00 0.32 0.22 70 1019.1
20210922173124 66 280 3.0 8.0 0.00 0.32 0.22 71 1019.1
20210922172626 66 347 3.0 11.0 0.00 0.32 0.22 72 1019.1
20210922172122 66 300 4.0 11.0 0.00 0.32 0.22 71 1018.9
20210922171623 66 338 4.0 9.0 0.00 0.32 0.22 72 1018.8
20210922171127 66 356 5.0 10.0 0.00 0.32 0.22 71 1018.8
20210922170632 66 325 4.0 10.0 0.00 0.32 0.22 71 1018.8
20210922170131 66 299 3.0 10.0 0.00 0.32 0.22 73 1018.7
20210922165627 66 253 4.0 12.0 0.00 0.32 0.22 72 1018.7
20210922165129 66 311 4.0 12.0 0.00 0.32 0.22 72 1018.6
20210922164628 66 345 4.0 11.0 0.00 0.32 0.22 71 1018.5
20210922164130 66 347 4.0 14.0 0.00 0.32 0.22 70 1018.5
20210922163624 66 302 5.0 14.0 0.00 0.32 0.22 70 1018.4
20210922163125 66 8 4.0 10.0 0.00 0.32 0.22 71 1018.4
20210922162618 66 356 4.0 9.0 0.00 0.32 0.22 72 1018.4
20210922162118 66 300 4.0 9.0 0.00 0.32 0.22 73 1018.4
20210922161621 66 293 4.0 9.0 0.00 0.32 0.22 73 1018.6
20210922161117 66 346 4.0 9.0 0.00 0.32 0.22 72 1018.6
20210922160621 66 315 3.0 9.0 0.00 0.32 0.22 73 1018.6
20210922160133 66 328 3.0 8.0 0.00 0.32 0.22 73 1018.6
20210922155624 66 328 4.0 8.0 0.00 0.32 0.22 73 1018.7
20210922155129 66 344 4.0 11.0 0.00 0.32 0.22 73 1018.7
20210922154624 66 316 4.0 11.0 0.00 0.32 0.22 73 1018.7
20210922154125 65 355 3.0 10.0 0.00 0.32 0.22 74 1018.7
20210922153622 65 345 3.0 8.0 0.00 0.32 0.22 75 1018.8
20210922153120 65 1 3.0 9.0 0.00 0.32 0.22 75 1018.7
20210922152618 65 342 4.0 12.0 0.00 0.32 0.22 76 1018.6
20210922152111 64 339 5.0 15.0 0.00 0.32 0.22 77 1018.6
20210922151606 64 329 4.0 15.0 0.00 0.32 0.22 78 1018.5
20210922151109 64 317 3.0 8.0 0.00 0.32 0.22 81 1018.5
20210922150615 63 352 2.0 8.0 0.00 0.32 0.22 83 1018.7
20210922150108 62 13 2.0 9.0 0.00 0.32 0.22 83 1018.8
20210922145607 62 1 1.0 9.0 0.00 0.32 0.22 84 1018.8
20210922145109 62 346 2.0 7.0 0.00 0.32 0.22 84 1018.7
20210922144607 61 309 2.0 7.0 0.00 0.32 0.22 84 1018.7
20210922144106 61 12 3.0 7.0 0.00 0.32 0.22 85 1018.6
20210922143605 61 327 3.0 7.0 0.00 0.32 0.22 85 1018.6
20210922143112 61 20 3.0 7.0 0.00 0.32 0.22 86 1018.7
20210922142605 61 335 3.0 9.0 0.00 0.32 0.22 86 1018.6
20210922142106 60 342 3.0 9.0 0.00 0.32 0.22 86 1018.6
20210922141604 60 346 2.0 7.0 0.00 0.32 0.22 86 1018.6
20210922141108 60 347 2.0 7.0 0.00 0.32 0.22 86 1018.6
20210922140602 59 359 2.0 7.0 0.00 0.32 0.22 86 1018.5
20210922140105 59 335 2.0 7.0 0.00 0.32 0.22 86 1018.6
20210922135604 59 330 2.0 7.0 0.00 0.32 0.22 86 1018.7
20210922135102 59 336 1.0 7.0 0.00 0.32 0.22 86 1018.7
20210922134559 59 359 2.0 6.0 0.00 0.32 0.22 86 1018.6
20210922134104 59 337 1.0 6.0 0.00 0.32 0.22 86 1018.6
20210922133601 59 302 1.0 4.0 0.00 0.32 0.22 86 1018.5
20210922133058 59 341 1.0 5.0 0.00 0.32 0.22 86 1018.5
20210922132559 59 334 1.0 5.0 0.00 0.32 0.22 86 1018.6
20210922132102 59 322 1.0 6.0 0.00 0.32 0.22 86 1018.7
20210922131601 59 288 1.0 6.0 0.00 0.32 0.22 86 1018.7
20210922131055 59 284 1.0 5.0 0.00 0.32 0.22 86 1018.7
20210922130556 59 307 1.0 5.0 0.00 0.32 0.22 86 1018.7
20210922130053 59 19 1.0 4.0 0.00 0.32 0.22 86 1018.6
20210922125553 59 349 1.0 3.0 0.01 0.32 0.22 86 1018.5
20210922125051 59 356 2.0 7.0 0.01 0.32 0.22 85 1018.4
20210922124549 59 359 2.0 7.0 0.01 0.32 0.22 85 1018.2
20210922124049 59 353 1.0 7.0 0.01 0.32 0.22 85 1018.2
20210922123549 59 313 1.0 7.0 0.01 0.32 0.22 85 1018.3
20210922123047 59 348 1.0 5.0 0.01 0.32 0.22 85 1018.2
20210922122548 59 347 2.0 7.0 0.01 0.32 0.22 85 1018.3
20210922122048 59 323 2.0 7.0 0.01 0.32 0.22 85 1018.2
20210922121548 59 359 1.0 4.0 0.01 0.32 0.22 85 1018.0
20210922121049 59 359 1.0 4.0 0.02 0.32 0.22 85 1018.2
20210922120548 59 323 1.0 5.0 0.02 0.32 0.22 85 1018.4
20210922120049 59 332 1.0 5.0 0.03 0.33 0.22 85 1018.3
20210922115552 59 336 0.0 4.0 0.03 0.34 0.21 85 1018.2
20210922115051 59 336 1.0 4.0 0.03 0.40 0.21 85 1018.1
20210922114550 59 348 2.0 9.0 0.03 0.42 0.21 85 1018.1
20210922114050 59 340 2.0 9.0 0.05 0.42 0.21 85 1018.2
20210922113552 59 0 3.0 8.0 0.06 0.42 0.21 84 1018.2
20210922113051 59 313 3.0 9.0 0.07 0.42 0.21 85 1017.9
20210922112555 59 340 2.0 9.0 0.10 0.42 0.21 84 1017.5
20210922112107 60 359 1.0 6.0 0.19 0.42 0.21 84 1017.6
20210922111552 60 323 2.0 6.0 0.20 0.42 0.21 84 1017.8
20210922111057 60 321 1.0 4.0 0.19 0.41 0.20 84 1017.9
20210922110552 60 13 2.0 6.0 0.19 0.41 0.20 84 1017.8
20210922110101 60 348 2.0 7.0 0.18 0.40 0.19 84 1017.5
20210922105547 60 26 2.0 9.0 0.17 0.39 0.18 84 1017.4
20210922105059 60 5 3.0 10.0 0.17 0.39 0.18 84 1017.3
20210922104547 60 323 3.0 10.0 0.17 0.39 0.18 84 1017.2
20210922104049 61 350 4.0 11.0 0.15 0.37 0.16 84 1017.0
20210922103549 61 315 4.0 11.0 0.14 0.36 0.15 84 1016.7
20210922103042 62 309 3.0 9.0 0.13 0.35 0.14 84 1016.8
20210922102543 62 342 2.0 8.0 0.10 0.32 0.12 84 1016.9
20210922102040 62 302 1.0 6.0 0.01 0.23 0.04 84 1017.0
20210922101538 62 252 2.0 7.0 0.00 0.22 0.01 84 1016.8
20210922101056 62 323 4.0 11.0 0.00 0.22 0.01 83 1016.7
20210922100552 62 7 5.0 13.0 0.01 0.22 0.01 84 1016.8
20210922100040 62 342 5.0 13.0 0.01 0.22 0.01 84 1016.6
20210922095522 62 38 5.0 15.0 0.01 0.22 0.01 83 1016.6
20210922095039 63 347 6.0 15.0 0.01 0.22 0.01 84 1016.4
20210922094525 63 320 6.0 14.0 0.01 0.22 0.01 84 1016.2
20210922094034 63 345 5.0 14.0 0.01 0.22 0.01 84 1016.1
20210922093519 63 19 4.0 11.0 0.01 0.22 0.01 84 1016.2
20210922093016 63 349 4.0 9.0 0.01 0.22 0.01 84 1016.3
20210922092515 63 316 5.0 16.0 0.01 0.22 0.01 84 1016.2
20210922092016 63 324 6.0 16.0 0.01 0.22 0.01 84 1016.0
20210922091516 64 359 7.0 13.0 0.01 0.22 0.01 84 1016.0
20210922091016 64 349 6.0 13.0 0.01 0.22 0.01 85 1016.0
20210922090520 64 328 5.0 11.0 0.00 0.21 0.00 85 1016.0
20210922090034 64 4 5.0 14.0 0.00 0.21 0.00 85 1015.9
20210922085522 64 349 3.0 14.0 0.00 0.21 0.00 85 1015.9
20210922085032 64 336 4.0 11.0 0.00 0.21 0.00 85 1015.8
20210922084514 64 341 5.0 11.0 0.00 0.21 0.00 85 1015.7